Location: Ch�ze
(42.9000°N, 0.0333°W)
Time: 23:51:51
(UTC+00:00)

ARGOS - Pass Details

Date: 24 January 2021
Orbit: 821 x 834 km, 98.4° (Epoch: 24 February)

Event Time Altitude Azimuth Distance (km) Brightness Sun altitude
Rises 17:55:44 0° 130° (SE) 3,344 6.0 -9.9°
Reaches altitude 10° 17:58:26 10° 117° (ESE) 2,417 5.2 -10.4°
Maximum altitude 18:02:42 25° 64° (ENE) 1,604 4.1 -11.1°
Drops below altitude 10° 18:07:01 10° 11° (N) 2,435 5.3 -11.9°
Sets 18:09:44 0° 358° (N) 3,375 6.2 -12.4°
